Back to catalog

SDA_1680

AliveMilitaryPO
NORAD 65990·PAYLOAD·🇺🇸 United States

Launched Oct 15, 2025 from Vandenberg Space Force Base

Loading…

Next Passes (next 24 hours)

TLE

FreshSource: Space-Track

Epoch: Sep 14, 2026, 15:18 UTC

1 65990U 25230S   26257.63759659  .00000108  00000-0  84507-4 0  9990
2 65990  81.3003 128.6006 0003637 328.6977  31.3963 13.85241811 46201

Track SDA_1680 in real time with AllMySat

Download on the App Store